Date,TemperatureHighF,TemperatureAvgF,TemperatureLowF,DewpointHighF,DewpointAvgF,DewpointLowF,HumidityHigh,HumidityAvg,HumidityLow,PressureMaxIn,PressureMinIn,WindSpeedMaxMPH,WindSpeedAvgMPH,GustSpeedMaxMPH,PrecipitationSumIn
2013-12-3,60,52,47,52,48,43,96,85,63,29.68,29.61,10,1,13,0.00
2013-12-4,68,59,45,59,54,43,100,83,67,29.73,29.51,24,3,34,0.01
2013-12-5,55,33,24,46,28,20,91,83,69,30.18,29.73,19,3,21,0.00
2013-12-6,24,21,18,21,19,14,91,89,83,30.47,30.14,0,0,0,0.00
2013-12-7,19,16,10,13,8,5,83,71,58,30.62,30.37,8,0,11,0.00
2013-12-8,29,25,19,28,21,11,93,84,70,30.37,29.95,9,1,11,0.00
2013-12-9,30,27,21,25,18,12,88,71,53,30.23,30.03,14,2,18,0.00
2013-12-10,35,25,17,19,16,12,87,72,41,30.29,30.18,13,2,17,0.00
2013-12-11,33,24,15,24,16,4,89,73,57,30.57,30.27,17,2,23,0.00
2013-12-12,30,18,4,12,4,-2,83,56,31,30.57,30.27,10,1,11,0.00
2013-12-13,39,30,21,31,22,11,92,73,46,30.26,29.92,16,1,17,0.00
2013-12-14,36,34,29,35,31,24,96,90,80,30.03,29.74,24,4,24,0.00
2013-12-15,32,29,27,29,23,20,88,79,71,30.15,30.01,14,3,16,0.00
2013-12-16,47,38,32,34,31,29,89,76,53,30.01,29.95,12,2,13,0.00
2013-12-17,41,32,27,29,26,22,91,78,57,30.21,30.01,11,1,13,0.00
2013-12-18,48,35,22,31,21,14,88,60,27,30.22,29.92,19,3,22,0.00
2013-12-19,58,52,44,48,41,31,73,67,54,29.94,29.78,22,7,25,0.00
2013-12-20,64,58,43,60,53,41,95,84,70,29.78,29.69,20,5,26,0.00
2013-12-21,43,40,36,41,39,34,96,95,94,29.74,29.47,12,2,16,0.83
2013-12-22,41,37,32,40,33,26,96,86,73,30.15,29.56,18,3,19,0.00
2013-12-23,32,27,20,26,18,10,83,70,63,30.46,30.15,17,4,19,0.00
2013-12-24,24,18,12,12,6,-3,77,58,32,30.57,30.34,14,2,17,0.00
2013-12-25,37,29,18,28,19,10,80,66,54,30.34,30.19,12,1,12,0.00
2013-12-26,46,35,27,28,25,19,89,69,37,30.35,30.24,10,1,12,0.00
2013-12-27,52,40,31,33,29,25,82,67,44,30.34,30.22,12,1,17,0.00
2013-12-28,50,42,34,32,30,27,83,64,44,30.22,29.86,11,1,17,0.00
2013-12-29,44,34,22,36,27,14,86,76,64,30.16,29.80,19,5,25,0.01
2013-12-30,28,21,15,14,10,4,77,61,41,30.28,30.16,12,1,16,0.00
2013-12-31,43,32,22,26,18,12,69,56,37,30.37,30.18,16,2,18,0.00